TimeEDT,TemperatureF,Dew PointF,Humidity,Sea Level PressureIn,VisibilityMPH,Wind Direction,Wind SpeedMPH,Gust SpeedMPH,PrecipitationIn,Events,Conditions,WindDirDegrees,DateUTC
12:19 AM,57.2,57.2,100,30.02,0.5,Calm,Calm,-,N/A,Fog,Fog,0,2012-10-05 04:19:00
12:26 AM,57.2,57.2,100,30.02,0.2,Calm,Calm,-,N/A,Fog,Fog,0,2012-10-05 04:26:00
12:37 AM,57.2,57.2,100,30.02,0.5,Calm,Calm,-,N/A,Fog,Fog,0,2012-10-05 04:37:00
12:51 AM,57.9,57.9,100,30.01,0.8,Calm,Calm,-,N/A,,Mist,0,2012-10-05 04:51:00
2:51 AM,59.0,57.9,96,29.99,0.5,Calm,Calm,-,N/A,Fog,Fog,0,2012-10-05 06:51:00
3:20 AM,57.2,57.2,100,29.99,0.2,Calm,Calm,-,N/A,Fog,Fog,0,2012-10-05 07:20:00
3:51 AM,57.9,57.0,97,29.99,0.2,Calm,Calm,-,N/A,Fog,Fog,0,2012-10-05 07:51:00
4:00 AM,57.2,57.2,100,29.99,0.8,Calm,Calm,-,N/A,,Overcast,0,2012-10-05 08:00:00
4:16 AM,57.2,57.2,100,29.99,0.5,Calm,Calm,-,N/A,Fog,Fog,0,2012-10-05 08:16:00
4:34 AM,57.2,57.2,100,30.00,1.5,Calm,Calm,-,N/A,,Overcast,0,2012-10-05 08:34:00
4:39 AM,57.2,57.2,100,30.00,3.0,Calm,Calm,-,N/A,,Overcast,0,2012-10-05 08:39:00
4:51 AM,57.9,57.0,97,29.99,10.0,Calm,Calm,-,N/A,,Overcast,0,2012-10-05 08:51:00
5:04 AM,59.0,57.2,94,30.00,10.0,Calm,Calm,-,N/A,,Overcast,0,2012-10-05 09:04:00
5:51 AM,59.0,57.0,93,29.99,10.0,Calm,Calm,-,N/A,,Overcast,0,2012-10-05 09:51:00
6:46 AM,57.2,55.4,94,30.00,7.0,Calm,Calm,-,N/A,,Scattered Clouds,0,2012-10-05 10:46:00
6:51 AM,57.9,55.9,93,29.99,6.0,Calm,Calm,-,N/A,,Scattered Clouds,0,2012-10-05 10:51:00
7:04 AM,57.2,55.4,94,30.00,6.0,Calm,Calm,-,N/A,,Mostly Cloudy,0,2012-10-05 11:04:00
7:40 AM,57.2,57.2,100,30.01,4.0,Calm,Calm,-,N/A,,Overcast,0,2012-10-05 11:40:00
7:51 AM,59.0,57.0,93,30.00,4.0,Calm,Calm,-,N/A,,Overcast,0,2012-10-05 11:51:00
8:51 AM,60.1,57.9,93,29.99,7.0,Calm,Calm,-,N/A,,Overcast,0,2012-10-05 12:51:00
9:51 AM,62.1,59.0,90,29.99,10.0,South,4.6,-,N/A,,Overcast,170,2012-10-05 13:51:00
10:39 AM,64.4,59.0,83,29.99,10.0,Calm,Calm,-,N/A,,Scattered Clouds,0,2012-10-05 14:39:00
10:51 AM,66.9,60.1,79,29.98,10.0,Calm,Calm,-,N/A,,Partly Cloudy,0,2012-10-05 14:51:00
11:51 AM,71.1,59.0,66,29.97,10.0,Variable,3.5,-,N/A,,Clear,0,2012-10-05 15:51:00
12:51 PM,72.0,55.9,57,29.95,10.0,Variable,4.6,-,N/A,,Clear,0,2012-10-05 16:51:00
1:51 PM,73.9,57.0,55,29.93,10.0,SW,4.6,-,N/A,,Clear,230,2012-10-05 17:51:00
3:51 PM,75.0,55.9,51,29.89,10.0,Variable,3.5,-,N/A,,Clear,0,2012-10-05 19:51:00
4:51 PM,73.9,55.0,52,29.90,10.0,Calm,Calm,-,N/A,,Clear,0,2012-10-05 20:51:00
5:51 PM,70.0,57.9,65,29.90,10.0,Calm,Calm,-,N/A,,Clear,0,2012-10-05 21:51:00
6:51 PM,66.0,57.9,75,29.90,10.0,SSE,3.5,-,N/A,,Clear,150,2012-10-05 22:51:00
7:51 PM,63.0,59.0,87,29.91,10.0,Calm,Calm,-,N/A,,Clear,0,2012-10-05 23:51:00
8:51 PM,61.0,59.0,93,29.91,9.0,Calm,Calm,-,N/A,,Clear,0,2012-10-06 00:51:00
9:51 PM,60.1,57.9,93,29.91,8.0,Calm,Calm,-,N/A,,Clear,0,2012-10-06 01:51:00
10:51 PM,60.1,57.0,90,29.90,8.0,Calm,Calm,-,N/A,,Clear,0,2012-10-06 02:51:00
11:51 PM,57.9,57.0,97,29.88,4.0,Calm,Calm,-,N/A,,Clear,0,2012-10-06 03:51:00